| time (UTC) | temp F | wind direction | speed knots | gust knots | rain 1hr in | rain 24hr in | rain mn in | humidity % | barometer mb |
| 20260505235507 | 54 | 310 | 0.9 | 4.3 | 0.00 | 0.00 | 0.00 | 44 | 1004.5 |
| 20260505234956 | 54 | 355 | 1.7 | 5.2 | 0.00 | 0.00 | 0.00 | 44 | 1004.5 |
| 20260505234455 | 54 | 328 | 2.6 | 5.2 | 0.00 | 0.00 | 0.00 | 43 | 1004.9 |
| 20260505233950 | 54 | 313 | 1.7 | 5.2 | 0.00 | 0.00 | 0.00 | 42 | 1004.9 |
| 20260505233444 | 54 | 332 | 1.7 | 5.2 | 0.00 | 0.00 | 0.00 | 42 | 1004.7 |
| 20260505232939 | 54 | 288 | 2.6 | 5.2 | 0.00 | 0.00 | 0.00 | 42 | 1004.7 |
| 20260505232428 | 54 | 294 | 1.7 | 5.2 | 0.00 | 0.00 | 0.00 | 41 | 1004.7 |
| 20260505231925 | 54 | 290 | 2.6 | 7.0 | 0.00 | 0.00 | 0.00 | 41 | 1004.9 |
| 20260505231419 | 54 | 314 | 2.6 | 8.7 | 0.00 | 0.00 | 0.00 | 41 | 1004.9 |
| 20260505231135 | 55 | 298 | 2.6 | 8.7 | 0.00 | 0.00 | 0.00 | 39 | 1004.9 |
| 20260505230407 | 55 | 293 | 2.6 | 7.0 | 0.00 | 0.00 | 0.00 | 40 | 1005.0 |
| 20260505225901 | 55 | 342 | 2.6 | 7.0 | 0.00 | 0.00 | 0.00 | 40 | 1005.0 |
| 20260505225356 | 55 | 254 | 2.6 | 7.8 | 0.00 | 0.00 | 0.00 | 39 | 1005.0 |
| 20260505224845 | 55 | 257 | 2.6 | 8.7 | 0.00 | 0.00 | 0.00 | 41 | 1005.2 |
| 20260505224343 | 55 | 340 | 2.6 | 8.7 | 0.00 | 0.00 | 0.00 | 41 | 1005.2 |
| 20260505223839 | 55 | 316 | 2.6 | 7.0 | 0.00 | 0.00 | 0.00 | 40 | 1005.2 |
| 20260505223550 | 54 | 273 | 3.5 | 7.0 | 0.00 | 0.00 | 0.00 | 40 | 1005.1 |
| 20260505222825 | 54 | 284 | 3.5 | 7.8 | 0.00 | 0.00 | 0.00 | 40 | 1005.1 |
| 20260505222315 | 55 | 299 | 2.6 | 6.1 | 0.00 | 0.00 | 0.00 | 41 | 1005.1 |
| 20260505221813 | 54 | 291 | 2.6 | 6.1 | 0.00 | 0.00 | 0.00 | 42 | 1005.1 |
| 20260505221306 | 54 | 292 | 2.6 | 5.2 | 0.00 | 0.00 | 0.00 | 44 | 1005.1 |
| 20260505220800 | 54 | 268 | 2.6 | 6.1 | 0.00 | 0.00 | 0.00 | 42 | 1005.1 |
| 20260505220517 | 54 | 269 | 3.5 | 6.1 | 0.00 | 0.00 | 0.00 | 42 | 1005.2 |
| 20260505220005 | 54 | 250 | 3.5 | 7.0 | 0.00 | 0.00 | 0.00 | 41 | 1005.2 |
| 20260505215244 | 54 | 281 | 3.5 | 7.8 | 0.00 | 0.00 | 0.00 | 42 | 1005.2 |
| 20260505214738 | 54 | 230 | 3.5 | 7.8 | 0.00 | 0.00 | 0.00 | 41 | 1005.5 |
| 20260505214716 | 54 | 274 | 2.6 | 7.8 | 0.00 | 0.00 | 0.00 | 42 | 1005.5 |
| 20260505213727 | 54 | 292 | 2.6 | 7.8 | 0.00 | 0.00 | 0.00 | 41 | 1005.5 |
| 20260505213218 | 54 | 328 | 3.5 | 7.8 | 0.00 | 0.00 | 0.00 | 42 | 1005.4 |
| 20260505212713 | 54 | 273 | 2.6 | 6.1 | 0.00 | 0.00 | 0.00 | 42 | 1005.4 |
| 20260505212202 | 54 | 271 | 2.6 | 5.2 | 0.00 | 0.00 | 0.00 | 41 | 1005.4 |
| 20260505211701 | 54 | 265 | 3.5 | 7.8 | 0.00 | 0.00 | 0.00 | 41 | 1005.4 |
| 20260505211156 | 54 | 226 | 3.5 | 7.8 | 0.00 | 0.00 | 0.00 | 42 | 1005.4 |
| 20260505210656 | 54 | 236 | 3.5 | 10.4 | 0.00 | 0.00 | 0.00 | 43 | 1005.4 |
| 20260505210157 | 54 | 301 | 4.3 | 10.4 | 0.00 | 0.00 | 0.00 | 43 | 1005.5 |
| 20260505205656 | 54 | 280 | 3.5 | 7.8 | 0.00 | 0.00 | 0.00 | 45 | 1005.5 |
| 20260505205157 | 54 | 306 | 2.6 | 6.1 | 0.00 | 0.00 | 0.00 | 48 | 1005.5 |
| 20260505204918 | 54 | 287 | 2.6 | 6.1 | 0.00 | 0.00 | 0.00 | 47 | 1005.6 |
| 20260505204156 | 54 | 242 | 2.6 | 5.2 | 0.00 | 0.00 | 0.00 | 48 | 1005.6 |
| 20260505203659 | 54 | 264 | 2.6 | 7.8 | 0.00 | 0.00 | 0.00 | 47 | 1005.6 |
| 20260505203159 | 54 | 250 | 3.5 | 8.7 | 0.00 | 0.00 | 0.00 | 47 | 1005.9 |
| 20260505202654 | 54 | 273 | 3.5 | 8.7 | 0.00 | 0.00 | 0.00 | 47 | 1005.9 |
| 20260505202407 | 54 | 281 | 2.6 | 8.7 | 0.00 | 0.00 | 0.00 | 47 | 1005.9 |
| 20260505201850 | 54 | 286 | 3.5 | 8.7 | 0.00 | 0.00 | 0.00 | 45 | 1005.7 |
| 20260505201127 | 54 | 277 | 3.5 | 8.7 | 0.00 | 0.00 | 0.00 | 46 | 1005.7 |
| 20260505200620 | 54 | 301 | 4.3 | 9.6 | 0.00 | 0.00 | 0.00 | 46 | 1005.7 |
| 20260505200114 | 54 | 340 | 3.5 | 9.6 | 0.00 | 0.00 | 0.00 | 45 | 1005.5 |
| 20260505195607 | 55 | 302 | 2.6 | 7.8 | 0.00 | 0.00 | 0.00 | 46 | 1005.5 |
| 20260505195101 | 54 | 277 | 4.3 | 11.3 | 0.00 | 0.00 | 0.00 | 46 | 1005.5 |
| 20260505194556 | 54 | 279 | 4.3 | 11.3 | 0.00 | 0.00 | 0.00 | 45 | 1005.5 |
| 20260505194045 | 55 | 219 | 3.5 | 9.6 | 0.00 | 0.00 | 0.00 | 46 | 1005.5 |
| 20260505193543 | 55 | 259 | 2.6 | 7.0 | 0.00 | 0.00 | 0.00 | 45 | 1005.5 |
| 20260505193037 | 55 | 248 | 2.6 | 8.7 | 0.00 | 0.00 | 0.00 | 45 | 1005.7 |
| 20260505192531 | 55 | 288 | 3.5 | 8.7 | 0.00 | 0.00 | 0.00 | 45 | 1005.7 |
| 20260505192247 | 55 | 223 | 2.6 | 7.8 | 0.00 | 0.00 | 0.00 | 45 | 1005.7 |
| 20260505191520 | 55 | 10 | 2.6 | 6.1 | 0.00 | 0.00 | 0.00 | 47 | 1005.7 |
| 20260505191245 | 55 | 215 | 3.5 | 7.0 | 0.00 | 0.00 | 0.00 | 47 | 1005.7 |
| 20260505190508 | 55 | 269 | 3.5 | 7.8 | 0.00 | 0.00 | 0.00 | 51 | 1005.7 |
| 20260505190000 | 55 | 290 | 3.5 | 7.8 | 0.00 | 0.00 | 0.00 | 49 | 1005.8 |
| 20260505185454 | 55 | 237 | 2.6 | 6.1 | 0.00 | 0.00 | 0.00 | 51 | 1005.8 |
| 20260505184948 | 54 | 272 | 3.5 | 6.1 | 0.00 | 0.00 | 0.00 | 50 | 1006.0 |
| 20260505184443 | 54 | 286 | 3.5 | 6.1 | 0.00 | 0.00 | 0.00 | 52 | 1006.0 |
| 20260505183932 | 54 | 285 | 3.5 | 6.1 | 0.00 | 0.00 | 0.00 | 53 | 1006.0 |
| 20260505183422 | 54 | 235 | 3.5 | 6.1 | 0.00 | 0.00 | 0.00 | 54 | 1006.0 |
| 20260505182920 | 54 | 237 | 2.6 | 6.1 | 0.00 | 0.00 | 0.00 | 57 | 1006.0 |
| 20260505182416 | 54 | 288 | 3.5 | 7.8 | 0.00 | 0.00 | 0.00 | 57 | 1006.0 |
| 20260505181910 | 53 | 320 | 4.3 | 7.8 | 0.00 | 0.00 | 0.00 | 57 | 1005.9 |
| 20260505181404 | 54 | 283 | 3.5 | 7.0 | 0.00 | 0.00 | 0.00 | 57 | 1005.9 |
| 20260505180853 | 54 | 259 | 3.5 | 7.0 | 0.00 | 0.00 | 0.00 | 56 | 1005.9 |
| 20260505180352 | 54 | 250 | 3.5 | 7.8 | 0.00 | 0.00 | 0.00 | 57 | 1005.6 |
| 20260505175846 | 54 | 289 | 2.6 | 7.8 | 0.00 | 0.00 | 0.00 | 57 | 1005.6 |
| 20260505175340 | 54 | 229 | 3.5 | 7.0 | 0.00 | 0.00 | 0.00 | 56 | 1005.6 |
| 20260505174834 | 54 | 250 | 3.5 | 10.4 | 0.00 | 0.00 | 0.00 | 56 | 1005.6 |
| 20260505174323 | 54 | 351 | 2.6 | 10.4 | 0.00 | 0.00 | 0.00 | 56 | 1005.6 |
| 20260505173821 | 54 | 316 | 3.5 | 10.4 | 0.00 | 0.00 | 0.00 | 58 | 1005.6 |
| 20260505173316 | 53 | 286 | 3.5 | 10.4 | 0.00 | 0.00 | 0.00 | 58 | 1005.6 |
| 20260505172810 | 54 | 9 | 3.5 | 7.8 | 0.00 | 0.00 | 0.00 | 58 | 1005.6 |
| 20260505172750 | 53 | 271 | 3.5 | 10.4 | 0.00 | 0.00 | 0.00 | 56 | 1005.6 |
| 20260505171756 | 54 | 293 | 3.5 | 9.6 | 0.00 | 0.00 | 0.00 | 56 | 1005.5 |
| 20260505171251 | 54 | 341 | 3.5 | 8.7 | 0.00 | 0.00 | 0.00 | 55 | 1005.5 |
| 20260505170744 | 54 | 295 | 3.5 | 8.7 | 0.00 | 0.00 | 0.00 | 54 | 1005.5 |
| 20260505170229 | 55 | 215 | 4.3 | 8.7 | 0.00 | 0.00 | 0.00 | 53 | 1005.4 |
| 20260505165725 | 55 | 259 | 4.3 | 10.4 | 0.00 | 0.00 | 0.00 | 54 | 1005.4 |
| 20260505165224 | 55 | 235 | 4.3 | 10.4 | 0.00 | 0.00 | 0.00 | 51 | 1005.4 |
| 20260505164727 | 55 | 270 | 4.3 | 9.6 | 0.00 | 0.00 | 0.00 | 52 | 1005.4 |
| 20260505164224 | 56 | 273 | 3.5 | 8.7 | 0.00 | 0.00 | 0.00 | 52 | 1005.4 |
| 20260505163725 | 55 | 288 | 3.5 | 7.8 | 0.00 | 0.00 | 0.00 | 52 | 1005.4 |
| 20260505163222 | 55 | 285 | 3.5 | 7.8 | 0.00 | 0.00 | 0.00 | 53 | 1005.1 |
| 20260505162724 | 55 | 276 | 3.5 | 7.8 | 0.00 | 0.00 | 0.00 | 52 | 1005.1 |
| 20260505162221 | 55 | 303 | 3.5 | 7.0 | 0.00 | 0.00 | 0.00 | 57 | 1005.1 |
| 20260505161947 | 54 | 5 | 2.6 | 7.0 | 0.00 | 0.00 | 0.00 | 58 | 1005.0 |
| 20260505161217 | 53 | 310 | 1.7 | 5.2 | 0.00 | 0.00 | 0.00 | 60 | 1005.0 |
| 20260505160711 | 53 | 355 | 1.7 | 4.3 | 0.00 | 0.00 | 0.00 | 62 | 1005.0 |
| 20260505160206 | 53 | 269 | 2.6 | 6.1 | 0.00 | 0.00 | 0.00 | 63 | 1005.4 |
| 20260505153130 | 51 | 351 | 2.6 | 8.7 | 0.00 | 0.00 | 0.00 | 67 | 1005.1 |
| 20260505152619 | 50 | 348 | 2.6 | 6.1 | 0.00 | 0.00 | 0.00 | 71 | 1005.1 |
| 20260505152115 | 50 | 34 | 1.7 | 6.1 | 0.00 | 0.00 | 0.00 | 74 | 1005.1 |
| 20260505151611 | 49 | 31 | 0.9 | 3.5 | 0.00 | 0.00 | 0.00 | 79 | 1005.4 |
| 20260505151104 | 48 | 310 | 1.7 | 3.5 | 0.00 | 0.00 | 0.00 | 77 | 1005.4 |
| 20260505150559 | 48 | 244 | 1.7 | 3.5 | 0.00 | 0.00 | 0.00 | 81 | 1005.4 |
| 20260505140445 | 45 | 321 | 1.7 | 3.5 | 0.00 | 0.00 | 0.00 | 85 | 1005.9 |
| 20260505124812 | 47 | 5 | 3.5 | 8.7 | 0.00 | 0.00 | 0.00 | 76 | 1004.4 |
| 20260505124300 | 48 | 336 | 3.5 | 9.6 | 0.00 | 0.00 | 0.00 | 75 | 1004.4 |
| 20260505123747 | 48 | 11 | 4.3 | 9.6 | 0.00 | 0.00 | 0.00 | 73 | 1004.4 |
| 20260505123510 | 49 | 12 | 4.3 | 11.3 | 0.00 | 0.00 | 0.00 | 71 | 1004.6 |
| 20260505122743 | 50 | 9 | 4.3 | 11.3 | 0.00 | 0.00 | 0.00 | 68 | 1004.6 |
| 20260505122512 | 50 | 282 | 4.3 | 10.4 | 0.00 | 0.00 | 0.00 | 66 | 1004.6 |
| 20260505121742 | 51 | 13 | 2.6 | 7.8 | 0.00 | 0.00 | 0.00 | 65 | 1004.6 |
| 20260505121243 | 51 | 325 | 2.6 | 7.8 | 0.00 | 0.00 | 0.00 | 65 | 1004.6 |
| 20260505120742 | 51 | 328 | 2.6 | 7.0 | 0.00 | 0.00 | 0.00 | 65 | 1004.6 |
| 20260505120243 | 51 | 348 | 2.6 | 6.1 | 0.00 | 0.00 | 0.00 | 64 | 1004.4 |
| 20260505115743 | 51 | 349 | 2.6 | 6.1 | 0.00 | 0.00 | 0.00 | 64 | 1004.4 |
| 20260505115241 | 51 | 100 | 2.6 | 8.7 | 0.00 | 0.00 | 0.00 | 65 | 1004.4 |
| 20260505114741 | 51 | 327 | 2.6 | 8.7 | 0.00 | 0.00 | 0.00 | 64 | 1003.4 |
| 20260505114236 | 51 | 350 | 1.7 | 5.2 | 0.00 | 0.00 | 0.00 | 65 | 1003.4 |
| 20260505113728 | 51 | 350 | 2.6 | 6.1 | 0.00 | 0.00 | 0.00 | 65 | 1003.4 |
| 20260505113222 | 52 | 0 | 2.6 | 6.1 | 0.00 | 0.00 | 0.00 | 64 | 1003.3 |
| 20260505112928 | 52 | 355 | 2.6 | 6.1 | 0.00 | 0.00 | 0.00 | 64 | 1003.3 |
| 20260505112437 | 51 | 355 | 2.6 | 6.1 | 0.00 | 0.00 | 0.00 | 65 | 1003.3 |
| 20260505111705 | 51 | 342 | 1.7 | 6.1 | 0.00 | 0.00 | 0.00 | 67 | 1002.8 |
| 20260505111158 | 51 | 312 | 1.7 | 5.2 | 0.00 | 0.00 | 0.00 | 69 | 1002.8 |
| 20260505110655 | 51 | 48 | 1.7 | 5.2 | 0.00 | 0.00 | 0.00 | 69 | 1002.8 |
| 20260505110628 | 51 | 5 | 1.7 | 5.2 | 0.00 | 0.00 | 0.00 | 68 | 1002.2 |
| 20260505102058 | 53 | 228 | 2.6 | 4.3 | 0.00 | 0.00 | 0.00 | 68 | 1002.5 |
| 20260505101553 | 53 | 261 | 1.7 | 4.3 | 0.00 | 0.00 | 0.00 | 68 | 1002.3 |
| 20260505101045 | 53 | 240 | 0.9 | 2.6 | 0.00 | 0.00 | 0.00 | 68 | 1002.3 |
| 20260505100540 | 53 | 240 | 0.9 | 2.6 | 0.00 | 0.00 | 0.00 | 68 | 1002.3 |
| 20260505100030 | 53 | 240 | 0.9 | 2.6 | 0.00 | 0.00 | 0.00 | 68 | 1002.3 |
| 20260505095528 | 53 | 239 | 0.9 | 2.6 | 0.00 | 0.00 | 0.00 | 67 | 1002.3 |
| 20260505095024 | 53 | 239 | 0.9 | 2.6 | 0.00 | 0.00 | 0.00 | 67 | 1002.3 |
| 20260505094516 | 53 | 234 | 0.9 | 2.6 | 0.00 | 0.00 | 0.00 | 67 | 1002.3 |
| 20260505094010 | 54 | 234 | 1.7 | 3.5 | 0.00 | 0.00 | 0.00 | 66 | 1002.3 |
| 20260505093730 | 54 | 227 | 1.7 | 5.2 | 0.00 | 0.00 | 0.00 | 66 | 1002.3 |
| 20260505092959 | 54 | 280 | 2.6 | 5.2 | 0.00 | 0.00 | 0.00 | 66 | 1002.4 |
| 20260505092453 | 54 | 223 | 1.7 | 4.3 | 0.00 | 0.00 | 0.00 | 66 | 1002.4 |
| 20260505091945 | 54 | 257 | 1.7 | 4.3 | 0.00 | 0.00 | 0.00 | 66 | 1002.0 |
| 20260505091441 | 54 | 236 | 1.7 | 4.3 | 0.00 | 0.00 | 0.00 | 66 | 1002.0 |
| 20260505090935 | 53 | 227 | 1.7 | 4.3 | 0.00 | 0.00 | 0.00 | 67 | 1002.0 |
| 20260505090429 | 53 | 226 | 1.7 | 3.5 | 0.00 | 0.00 | 0.00 | 67 | 1001.6 |
| 20260505085919 | 53 | 245 | 1.7 | 3.5 | 0.00 | 0.00 | 0.00 | 69 | 1001.6 |
| 20260505085416 | 53 | 230 | 1.7 | 3.5 | 0.00 | 0.00 | 0.00 | 70 | 1001.6 |
| 20260505085135 | 53 | 230 | 1.7 | 3.5 | 0.00 | 0.00 | 0.00 | 70 | 1000.9 |
| 20260505084403 | 53 | 239 | 1.7 | 3.5 | 0.00 | 0.00 | 0.00 | 69 | 1000.9 |
| 20260505083858 | 54 | 223 | 0.9 | 3.5 | 0.00 | 0.00 | 0.00 | 68 | 1000.9 |
| 20260505083351 | 54 | 218 | 0.0 | 0.9 | 0.00 | 0.00 | 0.00 | 66 | 1000.9 |
| 20260505082839 | 54 | 218 | 0.9 | 1.7 | 0.00 | 0.00 | 0.00 | 66 | 1000.9 |
| 20260505082334 | 54 | 218 | 1.7 | 3.5 | 0.00 | 0.00 | 0.00 | 64 | 1000.9 |
| 20260505082326 | 54 | 218 | 1.7 | 3.5 | 0.00 | 0.00 | 0.00 | 65 | 1000.6 |
| 20260505081335 | 54 | 247 | 1.7 | 3.5 | 0.00 | 0.00 | 0.00 | 64 | 1000.6 |
| 20260505080833 | 54 | 215 | 1.7 | 4.3 | 0.00 | 0.00 | 0.00 | 63 | 1000.6 |
| 20260505080333 | 55 | 222 | 0.9 | 4.3 | 0.00 | 0.00 | 0.00 | 63 | 1000.1 |
| 20260505075834 | 55 | 259 | 0.9 | 1.7 | 0.00 | 0.00 | 0.00 | 63 | 1000.1 |
| 20260505075336 | 55 | 259 | 0.9 | 2.6 | 0.00 | 0.00 | 0.00 | 63 | 1000.1 |
| 20260505074835 | 55 | 273 | 0.9 | 2.6 | 0.00 | 0.00 | 0.00 | 63 | 999.7 |
| 20260505074335 | 55 | 277 | 0.0 | 2.6 | 0.00 | 0.00 | 0.00 | 63 | 999.7 |
| 20260505073830 | 55 | 278 | 0.0 | 3.5 | 0.00 | 0.00 | 0.00 | 62 | 999.7 |
| 20260505073322 | 55 | 286 | 0.0 | 3.5 | 0.00 | 0.00 | 0.00 | 61 | 999.6 |
| 20260505072816 | 55 | 284 | 0.0 | 2.6 | 0.00 | 0.00 | 0.00 | 59 | 999.6 |
| 20260505072311 | 55 | 284 | 0.0 | 2.6 | 0.00 | 0.00 | 0.00 | 59 | 999.6 |
| 20260505071801 | 56 | 281 | 0.0 | 2.6 | 0.00 | 0.00 | 0.00 | 59 | 999.3 |
| 20260505071744 | 56 | 284 | 0.0 | 2.6 | 0.00 | 0.00 | 0.00 | 59 | 999.3 |
| 20260505070752 | 56 | 286 | 0.0 | 2.6 | 0.00 | 0.00 | 0.00 | 58 | 999.3 |
| 20260505070247 | 56 | 296 | 0.9 | 3.5 | 0.00 | 0.00 | 0.00 | 58 | 999.3 |
| 20260505065740 | 56 | 295 | 1.7 | 5.2 | 0.00 | 0.00 | 0.00 | 59 | 999.3 |
| 20260505065230 | 57 | 276 | 2.6 | 6.1 | 0.00 | 0.00 | 0.00 | 58 | 999.3 |
| 20260505064945 | 57 | 286 | 2.6 | 7.0 | 0.00 | 0.00 | 0.00 | 58 | 998.8 |
| 20260505064443 | 57 | 300 | 1.7 | 7.0 | 0.00 | 0.00 | 0.00 | 59 | 998.8 |
| 20260505063716 | 57 | 308 | 1.7 | 6.1 | 0.00 | 0.00 | 0.00 | 59 | 998.8 |
| 20260505063212 | 58 | 349 | 2.6 | 7.0 | 0.00 | 0.00 | 0.00 | 60 | 998.6 |
| 20260505062932 | 58 | 290 | 2.6 | 7.0 | 0.00 | 0.00 | 0.00 | 59 | 998.6 |
| 20260505062159 | 58 | 259 | 2.6 | 6.1 | 0.00 | 0.00 | 0.00 | 61 | 998.6 |
| 20260505061646 | 58 | 198 | 2.6 | 7.0 | 0.00 | 0.00 | 0.00 | 61 | 998.6 |
| 20260505061145 | 58 | 257 | 2.6 | 12.2 | 0.00 | 0.00 | 0.00 | 61 | 998.6 |
| 20260505060640 | 58 | 270 | 2.6 | 12.2 | 0.00 | 0.00 | 0.00 | 62 | 998.6 |
| 20260505060350 | 59 | 202 | 3.5 | 7.8 | 0.00 | 0.00 | 0.00 | 64 | 998.6 |
| 20260505055627 | 59 | 333 | 3.5 | 7.8 | 0.00 | 0.00 | 0.00 | 65 | 998.6 |
| 20260505055120 | 59 | 298 | 2.6 | 7.8 | 0.00 | 0.00 | 0.00 | 66 | 998.6 |
| 20260505054620 | 59 | 254 | 3.5 | 10.4 | 0.00 | 0.00 | 0.00 | 68 | 998.6 |
| 20260505054109 | 59 | 281 | 3.5 | 10.4 | 0.00 | 0.00 | 0.00 | 69 | 998.6 |
| 20260505053603 | 59 | 286 | 3.5 | 13.0 | 0.00 | 0.00 | 0.00 | 72 | 998.6 |
| 20260505053057 | 59 | 225 | 3.5 | 13.0 | 0.00 | 0.00 | 0.00 | 75 | 998.7 |
| 20260505052552 | 58 | 301 | 2.6 | 7.0 | 0.00 | 0.00 | 0.00 | 79 | 998.7 |
| 20260505052047 | 58 | 255 | 2.6 | 7.0 | 0.00 | 0.00 | 0.00 | 80 | 998.7 |
| 20260505051540 | 59 | 267 | 2.6 | 6.1 | 0.00 | 0.00 | 0.00 | 80 | 998.5 |
| 20260505051035 | 59 | 240 | 3.5 | 7.8 | 0.00 | 0.00 | 0.00 | 81 | 998.5 |
| 20260505050527 | 59 | 259 | 3.5 | 7.8 | 0.00 | 0.00 | 0.00 | 81 | 998.5 |
| 20260505041426 | 58 | 227 | 3.5 | 7.0 | 0.00 | 0.00 | 0.00 | 84 | 997.9 |
| 20260505040915 | 58 | 230 | 3.5 | 7.0 | 0.00 | 0.00 | 0.00 | 84 | 997.9 |
| 20260505040413 | 58 | 215 | 2.6 | 6.1 | 0.00 | 0.00 | 0.00 | 84 | 997.9 |
| 20260505035908 | 58 | 213 | 3.5 | 6.1 | 0.00 | 0.00 | 0.00 | 85 | 997.9 |
| 20260505035626 | 58 | 221 | 3.5 | 6.1 | 0.00 | 0.00 | 0.00 | 85 | 997.9 |
| 20260505034857 | 58 | 211 | 4.3 | 7.8 | 0.00 | 0.00 | 0.00 | 85 | 997.9 |
| 20260505034351 | 58 | 220 | 4.3 | 8.7 | 0.00 | 0.00 | 0.00 | 85 | 997.9 |
| 20260505033844 | 58 | 206 | 5.2 | 8.7 | 0.00 | 0.00 | 0.00 | 84 | 997.9 |
| 20260505033336 | 58 | 215 | 4.3 | 10.4 | 0.00 | 0.00 | 0.00 | 84 | 997.9 |
| 20260505032829 | 58 | 226 | 4.3 | 10.4 | 0.00 | 0.00 | 0.00 | 83 | 997.9 |
| 20260505032323 | 59 | 218 | 4.3 | 8.7 | 0.00 | 0.00 | 0.00 | 83 | 997.9 |
| 20260505032040 | 59 | 221 | 4.3 | 8.7 | 0.00 | 0.00 | 0.00 | 82 | 997.6 |
| 20260505031530 | 59 | 200 | 4.3 | 8.7 | 0.00 | 0.00 | 0.00 | 82 | 997.6 |
| 20260505031026 | 59 | 182 | 3.5 | 8.7 | 0.00 | 0.00 | 0.00 | 82 | 997.6 |
| 20260505030252 | 59 | 204 | 2.6 | 8.7 | 0.00 | 0.00 | 0.00 | 81 | 997.3 |
| 20260505025741 | 59 | 215 | 2.6 | 6.1 | 0.00 | 0.00 | 0.00 | 81 | 997.3 |
| 20260505025227 | 59 | 228 | 2.6 | 7.0 | 0.00 | 0.00 | 0.00 | 81 | 997.3 |
| 20260505024941 | 59 | 239 | 1.7 | 6.1 | 0.00 | 0.00 | 0.00 | 82 | 997.4 |
| 20260505024202 | 58 | 165 | 1.7 | 5.2 | 0.00 | 0.00 | 0.00 | 83 | 997.4 |
| 20260505023649 | 58 | 168 | 1.7 | 5.2 | 0.00 | 0.00 | 0.00 | 83 | 997.4 |
| 20260505023138 | 58 | 141 | 1.7 | 5.2 | 0.00 | 0.00 | 0.00 | 82 | 997.5 |
| 20260505022626 | 58 | 182 | 1.7 | 5.2 | 0.00 | 0.00 | 0.00 | 82 | 997.5 |
| 20260505022113 | 59 | 152 | 2.6 | 6.1 | 0.00 | 0.00 | 0.00 | 82 | 997.5 |
| 20260505021609 | 58 | 177 | 2.6 | 6.1 | 0.00 | 0.00 | 0.00 | 82 | 997.0 |
| 20260505021058 | 59 | 186 | 2.6 | 5.2 | 0.00 | 0.00 | 0.00 | 82 | 997.0 |
| 20260505020552 | 59 | 151 | 2.6 | 6.1 | 0.00 | 0.00 | 0.00 | 82 | 997.0 |
| 20260505020042 | 59 | 197 | 4.3 | 7.0 | 0.00 | 0.00 | 0.00 | 81 | 997.0 |
| 20260505015538 | 59 | 207 | 4.3 | 12.2 | 0.00 | 0.00 | 0.00 | 81 | 997.0 |
| 20260505015515 | 59 | 228 | 5.2 | 12.2 | 0.00 | 0.00 | 0.00 | 81 | 997.0 |
| 20260505014526 | 59 | 213 | 6.1 | 11.3 | 0.00 | 0.00 | 0.00 | 82 | 997.6 |
| 20260505014021 | 58 | 253 | 7.0 | 20.9 | 0.00 | 0.00 | 0.00 | 82 | 997.6 |
| 20260505013509 | 58 | 202 | 7.8 | 20.9 | 0.00 | 0.00 | 0.00 | 83 | 997.6 |
| 20260505013008 | 58 | 243 | 9.6 | 22.6 | 0.00 | 0.00 | 0.00 | 83 | 998.0 |
| 20260505012729 | 58 | 223 | 8.7 | 22.6 | 0.00 | 0.00 | 0.00 | 84 | 998.0 |
| 20260505011956 | 58 | 247 | 10.4 | 23.5 | 0.00 | 0.00 | 0.00 | 83 | 998.0 |
| 20260505011450 | 59 | 243 | 8.7 | 23.5 | 0.00 | 0.00 | 0.00 | 82 | 996.9 |
| 20260505010940 | 59 | 215 | 5.2 | 16.5 | 0.00 | 0.00 | 0.00 | 81 | 996.9 |
| 20260505010438 | 60 | 251 | 4.3 | 8.7 | 0.00 | 0.00 | 0.00 | 80 | 996.7 |
| 20260505010149 | 60 | 233 | 4.3 | 7.8 | 0.00 | 0.00 | 0.00 | 81 | 996.7 |
| 20260505005426 | 60 | 201 | 4.3 | 10.4 | 0.00 | 0.00 | 0.00 | 83 | 996.7 |
| 20260505005139 | 60 | 171 | 6.1 | 11.3 | 0.00 | 0.00 | 0.00 | 83 | 996.3 |
| 20260505004415 | 60 | 208 | 7.0 | 16.5 | 0.00 | 0.00 | 0.00 | 82 | 996.3 |
| 20260505003909 | 61 | 178 | 5.2 | 16.5 | 0.00 | 0.00 | 0.00 | 81 | 996.3 |
| 20260505003359 | 63 | 244 | 3.5 | 11.3 | 0.00 | 0.00 | 0.00 | 78 | 996.1 |
| 20260505002857 | 65 | 281 | 4.3 | 11.3 | 0.00 | 0.00 | 0.00 | 77 | 996.1 |
| 20260505002351 | 66 | 276 | 4.3 | 10.4 | 0.00 | 0.00 | 0.00 | 74 | 996.1 |
| 20260505001839 | 67 | 286 | 6.1 | 14.8 | 0.00 | 0.00 | 0.00 | 72 | 996.0 |
| 20260505001338 | 68 | 252 | 6.1 | 14.8 | 0.00 | 0.00 | 0.00 | 70 | 996.0 |
| 20260505000832 | 68 | 306 | 5.2 | 12.2 | 0.00 | 0.00 | 0.00 | 70 | 996.0 |
| 20260505000544 | 69 | 292 | 6.1 | 15.6 | 0.00 | 0.00 | 0.00 | 69 | 994.7 |
| 20260504235821 | 69 | 224 | 6.1 | 15.6 | 0.00 | 0.00 | 0.00 | 69 | 994.7 |